Time,TemperatureF,DewpointF,PressureIn,WindDirection,WindDirectionDegrees,WindSpeedMPH,WindSpeedGustMPH,Humidity,HourlyPrecipIn,Conditions,Clouds,dailyrainin,SoftwareType,DateUTC
2013-08-12 00:01:00,64.4,59.1,30.08,North,0,0.0,0.0,83,0.00,,,0.00,WUHU21623XXSP,2013-08-12 04:01:00,
2013-08-12 00:06:00,64.6,59.3,30.08,North,0,0.0,0.0,83,0.00,,,0.00,WUHU21623XXSP,2013-08-12 04:06:00,
2013-08-12 00:11:00,64.6,59.3,30.08,North,0,0.0,0.0,83,0.00,,,0.00,WUHU21623XXSP,2013-08-12 04:11:00,
2013-08-12 00:16:00,64.6,59.3,30.08,North,0,0.0,0.0,83,0.00,,,0.00,WUHU21623XXSP,2013-08-12 04:16:00,
2013-08-12 00:21:00,64.8,59.5,30.07,North,0,0.0,0.0,83,0.00,,,0.00,WUHU21623XXSP,2013-08-12 04:21:00,
2013-08-12 00:26:00,64.8,59.5,30.08,North,0,0.0,0.0,83,0.00,,,0.00,WUHU21623XXSP,2013-08-12 04:26:00,
2013-08-12 00:31:00,64.8,59.5,30.07,North,0,0.0,0.0,83,0.00,,,0.00,WUHU21623XXSP,2013-08-12 04:31:00,
2013-08-12 00:36:00,64.8,59.1,30.07,North,0,0.0,0.0,82,0.00,,,0.00,WUHU21623XXSP,2013-08-12 04:36:00,
2013-08-12 00:41:00,64.8,59.1,30.07,North,0,0.0,0.0,82,0.00,,,0.00,WUHU21623XXSP,2013-08-12 04:41:00,
2013-08-12 00:46:00,64.8,59.1,30.07,North,0,0.0,0.0,82,0.00,,,0.00,WUHU21623XXSP,2013-08-12 04:46:00,
2013-08-12 00:51:00,64.8,59.1,30.07,North,0,0.0,0.0,82,0.00,,,0.00,WUHU21623XXSP,2013-08-12 04:51:00,
2013-08-12 00:56:00,64.8,59.1,30.08,North,0,0.0,0.0,82,0.00,,,0.00,WUHU21623XXSP,2013-08-12 04:56:00,
2013-08-12 01:01:00,64.8,59.1,30.08,North,0,0.0,0.0,82,0.00,,,0.00,WUHU21623XXSP,2013-08-12 05:01:00,
2013-08-12 01:06:00,64.8,59.1,30.08,North,0,0.0,0.0,82,0.00,,,0.00,WUHU21623XXSP,2013-08-12 05:06:00,
2013-08-12 01:11:00,64.8,58.8,30.08,North,0,0.0,0.0,81,0.00,,,0.00,WUHU21623XXSP,2013-08-12 05:11:00,
2013-08-12 01:16:00,64.8,58.8,30.08,North,0,0.0,0.0,81,0.00,,,0.00,WUHU21623XXSP,2013-08-12 05:16:00,
2013-08-12 01:21:00,64.8,58.8,30.08,North,0,0.0,0.0,81,0.00,,,0.00,WUHU21623XXSP,2013-08-12 05:21:00,
2013-08-12 01:26:00,64.9,59.0,30.08,North,0,0.0,0.0,81,0.00,,,0.00,WUHU21623XXSP,2013-08-12 05:26:00,
2013-08-12 01:31:00,64.9,59.0,30.07,North,0,0.0,0.0,81,0.00,,,0.00,WUHU21623XXSP,2013-08-12 05:31:00,
2013-08-12 01:36:00,64.9,59.0,30.07,North,0,0.0,0.0,81,0.00,,,0.00,WUHU21623XXSP,2013-08-12 05:36:00,
2013-08-12 01:41:00,64.9,59.0,30.07,North,0,0.0,0.0,81,0.00,,,0.00,WUHU21623XXSP,2013-08-12 05:41:00,
2013-08-12 01:46:00,64.9,59.0,30.07,North,0,0.0,0.0,81,0.00,,,0.00,WUHU21623XXSP,2013-08-12 05:46:00,
2013-08-12 01:51:00,64.8,58.8,30.07,North,0,0.0,0.0,81,0.00,,,0.00,WUHU21623XXSP,2013-08-12 05:51:00,
2013-08-12 01:56:00,64.9,59.0,30.07,North,0,0.0,0.0,81,0.00,,,0.00,WUHU21623XXSP,2013-08-12 05:56:00,
2013-08-12 02:01:00,64.8,58.8,30.07,North,0,0.0,0.0,81,0.00,,,0.00,WUHU21623XXSP,2013-08-12 06:01:00,
2013-08-12 02:06:00,64.8,58.8,30.07,North,0,0.0,0.0,81,0.00,,,0.00,WUHU21623XXSP,2013-08-12 06:06:00,
2013-08-12 02:11:00,64.8,58.8,30.07,North,0,0.0,0.0,81,0.00,,,0.00,WUHU21623XXSP,2013-08-12 06:11:00,
2013-08-12 02:16:00,64.8,58.8,30.07,North,0,0.0,0.0,81,0.00,,,0.00,WUHU21623XXSP,2013-08-12 06:16:00,
2013-08-12 02:22:00,64.8,58.8,30.07,North,0,0.0,0.0,81,0.00,,,0.00,WUHU21623XXSP,2013-08-12 06:22:00,
2013-08-12 02:27:00,64.8,58.8,30.06,North,0,0.0,0.0,81,0.00,,,0.00,WUHU21623XXSP,2013-08-12 06:27:00,
2013-08-12 02:32:00,64.8,58.8,30.06,North,0,0.0,0.0,81,0.00,,,0.00,WUHU21623XXSP,2013-08-12 06:32:00,
2013-08-12 02:37:00,64.8,58.8,30.06,North,0,0.0,0.0,81,0.00,,,0.00,WUHU21623XXSP,2013-08-12 06:37:00,
2013-08-12 02:42:00,64.8,59.1,30.06,North,0,0.0,0.0,82,0.00,,,0.00,WUHU21623XXSP,2013-08-12 06:42:00,
2013-08-12 02:47:00,64.8,59.1,30.06,North,0,0.0,0.0,82,0.00,,,0.00,WUHU21623XXSP,2013-08-12 06:47:00,
2013-08-12 02:52:00,64.8,59.1,30.06,North,0,0.0,0.0,82,0.00,,,0.00,WUHU21623XXSP,2013-08-12 06:52:00,
2013-08-12 02:57:00,64.6,58.9,30.06,North,0,0.0,0.0,82,0.00,,,0.00,WUHU21623XXSP,2013-08-12 06:57:00,
2013-08-12 03:02:00,64.6,59.3,30.06,North,0,0.0,0.0,83,0.00,,,0.00,WUHU21623XXSP,2013-08-12 07:02:00,
2013-08-12 03:07:00,64.6,59.3,30.06,North,0,0.0,0.0,83,0.00,,,0.00,WUHU21623XXSP,2013-08-12 07:07:00,
2013-08-12 03:12:00,64.6,59.3,30.06,North,0,0.0,0.0,83,0.00,,,0.00,WUHU21623XXSP,2013-08-12 07:12:00,
2013-08-12 03:17:00,64.6,59.3,30.06,North,0,0.0,0.0,83,0.00,,,0.00,WUHU21623XXSP,2013-08-12 07:17:00,
2013-08-12 03:22:00,64.6,59.3,30.06,North,0,0.0,0.0,83,0.00,,,0.00,WUHU21623XXSP,2013-08-12 07:22:00,
2013-08-12 03:27:00,64.6,59.3,30.05,North,0,0.0,0.0,83,0.00,,,0.00,WUHU21623XXSP,2013-08-12 07:27:00,
2013-08-12 03:32:00,64.4,59.5,30.06,North,0,0.0,0.0,84,0.00,,,0.00,WUHU21623XXSP,2013-08-12 07:32:00,
2013-08-12 03:37:00,64.4,59.5,30.06,North,0,0.0,0.0,84,0.00,,,0.00,WUHU21623XXSP,2013-08-12 07:37:00,
2013-08-12 03:42:00,64.4,59.5,30.05,North,0,0.0,0.0,84,0.00,,,0.00,WUHU21623XXSP,2013-08-12 07:42:00,
2013-08-12 03:47:00,64.2,59.3,30.05,North,0,0.0,0.0,84,0.00,,,0.00,WUHU21623XXSP,2013-08-12 07:47:00,
2013-08-12 03:52:00,64.2,59.3,30.05,North,0,0.0,0.0,84,0.00,,,0.00,WUHU21623XXSP,2013-08-12 07:52:00,
2013-08-12 03:57:00,64.2,59.3,30.05,North,0,0.0,0.0,84,0.00,,,0.00,WUHU21623XXSP,2013-08-12 07:57:00,
2013-08-12 04:02:00,64.2,59.3,30.05,North,0,0.0,0.0,84,0.00,,,0.00,WUHU21623XXSP,2013-08-12 08:02:00,
2013-08-12 04:07:00,64.2,59.3,30.05,North,0,0.0,0.0,84,0.00,,,0.00,WUHU21623XXSP,2013-08-12 08:07:00,
2013-08-12 04:12:00,64.2,59.6,30.05,North,0,0.0,0.0,85,0.00,,,0.00,WUHU21623XXSP,2013-08-12 08:12:00,
2013-08-12 04:17:00,64.2,59.6,30.05,North,0,0.0,0.0,85,0.00,,,0.00,WUHU21623XXSP,2013-08-12 08:17:00,
2013-08-12 04:22:00,64.2,59.6,30.05,North,0,0.0,0.0,85,0.00,,,0.00,WUHU21623XXSP,2013-08-12 08:22:00,
2013-08-12 04:27:00,64.2,59.6,30.05,North,0,0.0,0.0,85,0.00,,,0.00,WUHU21623XXSP,2013-08-12 08:27:00,
2013-08-12 04:32:00,64.0,59.5,30.05,North,0,0.0,0.0,85,0.00,,,0.00,WUHU21623XXSP,2013-08-12 08:32:00,
2013-08-12 04:37:00,64.2,59.6,30.04,North,0,0.0,0.0,85,0.00,,,0.00,WUHU21623XXSP,2013-08-12 08:37:00,
2013-08-12 04:42:00,64.2,59.6,30.04,North,0,0.0,0.0,85,0.00,,,0.00,WUHU21623XXSP,2013-08-12 08:42:00,
2013-08-12 04:47:00,64.2,59.6,30.04,North,0,0.0,0.0,85,0.00,,,0.00,WUHU21623XXSP,2013-08-12 08:47:00,
2013-08-12 04:52:00,64.2,59.6,30.04,North,0,0.0,0.0,85,0.00,,,0.00,WUHU21623XXSP,2013-08-12 08:52:00,
2013-08-12 04:57:00,64.2,59.6,30.04,North,0,0.0,0.0,85,0.00,,,0.00,WUHU21623XXSP,2013-08-12 08:57:00,
2013-08-12 05:02:00,64.2,59.6,30.04,North,0,0.0,0.0,85,0.00,,,0.00,WUHU21623XXSP,2013-08-12 09:02:00,
2013-08-12 05:07:00,64.2,59.6,30.04,North,0,0.0,0.0,85,0.00,,,0.00,WUHU21623XXSP,2013-08-12 09:07:00,
2013-08-12 05:12:00,64.2,59.6,30.04,North,0,0.0,0.0,85,0.00,,,0.00,WUHU21623XXSP,2013-08-12 09:12:00,
2013-08-12 05:17:00,64.2,59.6,30.03,North,0,0.0,0.0,85,0.00,,,0.00,WUHU21623XXSP,2013-08-12 09:17:00,
2013-08-12 05:22:00,64.2,59.6,30.03,North,0,0.0,0.0,85,0.00,,,0.00,WUHU21623XXSP,2013-08-12 09:22:00,
2013-08-12 05:27:00,64.2,59.6,30.03,North,0,0.0,0.0,85,0.00,,,0.00,WUHU21623XXSP,2013-08-12 09:27:00,
2013-08-12 05:32:00,64.2,59.6,30.04,North,0,0.0,0.0,85,0.00,,,0.00,WUHU21623XXSP,2013-08-12 09:32:00,
2013-08-12 05:37:00,64.2,59.6,30.04,North,0,0.0,0.0,85,0.00,,,0.00,WUHU21623XXSP,2013-08-12 09:37:00,
2013-08-12 05:42:00,64.2,59.6,30.04,North,0,0.0,0.0,85,0.00,,,0.00,WUHU21623XXSP,2013-08-12 09:42:00,
2013-08-12 05:47:00,64.0,59.6,30.03,North,0,0.0,0.0,85,0.00,,,0.00,WUHU21623XXSP,2013-08-12 09:47:00,
2013-08-12 05:52:00,64.0,59.5,30.03,North,0,0.0,0.0,85,0.00,,,0.00,WUHU21623XXSP,2013-08-12 09:52:00,
2013-08-12 05:57:00,64.0,59.6,30.04,North,0,0.0,0.0,85,0.00,,,0.00,WUHU21623XXSP,2013-08-12 09:57:00,
2013-08-12 06:02:00,64.0,59.5,30.03,North,0,0.0,0.0,85,0.00,,,0.00,WUHU21623XXSP,2013-08-12 10:02:00,
2013-08-12 06:07:00,64.0,59.5,30.03,North,0,0.0,0.0,85,0.00,,,0.00,WUHU21623XXSP,2013-08-12 10:07:00,
2013-08-12 06:12:00,64.0,59.5,30.04,North,0,0.0,0.0,85,0.00,,,0.00,WUHU21623XXSP,2013-08-12 10:12:00,
2013-08-12 06:17:00,64.0,59.5,30.03,North,0,0.0,0.0,85,0.00,,,0.00,WUHU21623XXSP,2013-08-12 10:17:00,
2013-08-12 06:22:00,64.0,59.5,30.03,North,0,0.0,0.0,85,0.00,,,0.00,WUHU21623XXSP,2013-08-12 10:22:00,
2013-08-12 06:27:00,64.0,59.8,30.03,North,0,0.0,0.0,86,0.00,,,0.00,WUHU21623XXSP,2013-08-12 10:27:00,
2013-08-12 06:32:00,64.0,59.8,30.03,North,0,0.0,0.0,86,0.00,,,0.00,WUHU21623XXSP,2013-08-12 10:32:00,
2013-08-12 06:37:00,64.0,59.8,30.03,North,0,0.0,0.0,86,0.00,,,0.00,WUHU21623XXSP,2013-08-12 10:37:00,
2013-08-12 06:42:00,64.2,60.0,30.02,North,0,0.0,0.0,86,0.00,,,0.00,WUHU21623XXSP,2013-08-12 10:42:00,
2013-08-12 06:47:00,64.2,60.0,30.03,North,0,0.0,0.0,86,0.00,,,0.00,WUHU21623XXSP,2013-08-12 10:47:00,
2013-08-12 06:52:00,64.2,60.0,30.03,North,0,0.0,0.0,86,0.00,,,0.00,WUHU21623XXSP,2013-08-12 10:52:00,
2013-08-12 06:57:00,64.2,60.0,30.03,North,0,0.0,0.0,86,0.00,,,0.00,WUHU21623XXSP,2013-08-12 10:57:00,
2013-08-12 07:02:00,64.2,60.0,30.04,North,0,0.0,0.0,86,0.00,,,0.00,WUHU21623XXSP,2013-08-12 11:02:00,
2013-08-12 07:07:00,64.2,60.0,30.04,North,0,0.0,0.0,86,0.00,,,0.00,WUHU21623XXSP,2013-08-12 11:07:00,
2013-08-12 07:12:00,64.0,59.8,30.04,North,0,0.0,0.0,86,0.00,,,0.00,WUHU21623XXSP,2013-08-12 11:12:00,
2013-08-12 07:17:00,64.2,60.0,30.04,North,0,0.0,0.0,86,0.00,,,0.00,WUHU21623XXSP,2013-08-12 11:17:00,
2013-08-12 07:22:00,64.2,60.0,30.04,North,0,0.0,0.0,86,0.00,,,0.00,WUHU21623XXSP,2013-08-12 11:22:00,
2013-08-12 07:27:00,64.0,59.8,30.04,North,0,0.0,0.0,86,0.00,,,0.00,WUHU21623XXSP,2013-08-12 11:27:00,
2013-08-12 07:32:00,64.2,60.0,30.04,North,0,0.0,0.0,86,0.00,,,0.00,WUHU21623XXSP,2013-08-12 11:32:00,
2013-08-12 07:37:00,64.0,59.8,30.04,North,0,0.0,0.0,86,0.00,,,0.00,WUHU21623XXSP,2013-08-12 11:37:00,
2013-08-12 07:42:00,64.0,59.8,30.04,North,0,0.0,0.0,86,0.00,,,0.00,WUHU21623XXSP,2013-08-12 11:42:00,
2013-08-12 07:47:00,63.7,59.8,30.03,North,0,0.0,0.0,86,0.00,,,0.00,WUHU21623XXSP,2013-08-12 11:47:00,
2013-08-12 07:52:00,63.7,59.8,30.03,North,0,0.0,0.0,87,0.02,,,0.02,WUHU21623XXSP,2013-08-12 11:52:00,
2013-08-12 07:57:00,63.5,59.8,30.03,North,0,0.0,0.0,87,0.04,,,0.04,WUHU21623XXSP,2013-08-12 11:57:00,
2013-08-12 08:02:00,63.5,59.6,30.03,North,0,0.0,0.0,87,0.04,,,0.04,WUHU21623XXSP,2013-08-12 12:02:00,
2013-08-12 08:07:00,63.3,59.4,30.04,North,0,0.0,0.0,87,0.06,,,0.06,WUHU21623XXSP,2013-08-12 12:07:00,
2013-08-12 08:12:00,63.1,59.2,30.04,North,0,0.0,0.0,87,0.06,,,0.06,WUHU21623XXSP,2013-08-12 12:12:00,
2013-08-12 08:17:00,63.1,59.6,30.04,North,0,0.0,0.0,88,0.08,,,0.08,WUHU21623XXSP,2013-08-12 12:17:00,
2013-08-12 08:22:00,63.1,59.6,30.04,North,0,0.0,0.0,88,0.08,,,0.08,WUHU21623XXSP,2013-08-12 12:22:00,
2013-08-12 08:27:00,63.0,59.4,30.04,North,0,0.0,0.0,88,0.08,,,0.08,WUHU21623XXSP,2013-08-12 12:27:00,
2013-08-12 08:32:00,63.0,59.4,30.04,North,0,0.0,0.0,88,0.08,,,0.08,WUHU21623XXSP,2013-08-12 12:32:00,
2013-08-12 08:37:00,62.8,59.2,30.02,North,0,0.0,0.0,89,0.08,,,0.08,WUHU21623XXSP,2013-08-12 12:37:00,
2013-08-12 08:47:00,62.6,59.4,30.03,North,0,0.0,0.0,89,0.10,,,0.10,WUHU21623XXSP,2013-08-12 12:47:00,
2013-08-12 08:52:00,62.4,59.2,30.02,North,0,0.0,0.0,89,0.08,,,0.12,WUHU21623XXSP,2013-08-12 12:52:00,
2013-08-12 08:57:00,62.4,59.2,30.01,North,0,0.0,0.0,89,0.08,,,0.12,WUHU21623XXSP,2013-08-12 12:57:00,
2013-08-12 09:02:00,62.4,59.4,29.99,North,0,0.0,0.0,89,0.08,,,0.12,WUHU21623XXSP,2013-08-12 13:02:00,
2013-08-12 09:07:00,62.4,59.2,30.01,North,0,0.0,0.0,89,0.06,,,0.12,WUHU21623XXSP,2013-08-12 13:07:00,
2013-08-12 09:12:00,62.4,59.2,30.01,North,0,0.0,0.0,89,0.04,,,0.12,WUHU21623XXSP,2013-08-12 13:12:00,
2013-08-12 09:17:00,62.4,59.2,30.01,North,0,0.0,0.0,89,0.04,,,0.12,WUHU21623XXSP,2013-08-12 13:17:00,
2013-08-12 09:22:00,62.6,59.2,30.01,North,0,0.0,0.0,89,0.04,,,0.12,WUHU21623XXSP,2013-08-12 13:22:00,
2013-08-12 09:27:00,62.6,59.7,30.01,North,0,0.0,0.0,90,0.04,,,0.12,WUHU21623XXSP,2013-08-12 13:27:00,
2013-08-12 09:32:00,62.6,59.7,30.02,North,0,0.0,0.0,90,0.04,,,0.12,WUHU21623XXSP,2013-08-12 13:32:00,
2013-08-12 09:37:00,62.6,59.7,30.02,North,0,0.0,0.0,90,0.06,,,0.14,WUHU21623XXSP,2013-08-12 13:37:00,
2013-08-12 09:42:00,62.8,59.9,30.02,North,0,0.0,0.0,90,0.04,,,0.14,WUHU21623XXSP,2013-08-12 13:42:00,
2013-08-12 09:47:00,62.8,59.9,30.02,North,0,0.0,0.0,90,0.02,,,0.14,WUHU21623XXSP,2013-08-12 13:47:00,
2013-08-12 09:52:00,62.8,59.9,30.02,North,0,0.0,0.0,90,0.02,,,0.14,WUHU21623XXSP,2013-08-12 13:52:00,
2013-08-12 09:57:00,63.0,60.1,30.02,North,0,0.0,0.0,90,0.02,,,0.14,WUHU21623XXSP,2013-08-12 13:57:00,
2013-08-12 10:02:00,63.1,60.3,30.01,North,0,0.0,0.0,90,0.02,,,0.14,WUHU21623XXSP,2013-08-12 14:02:00,
2013-08-12 10:07:00,63.1,60.1,30.01,North,0,0.0,0.0,90,0.02,,,0.14,WUHU21623XXSP,2013-08-12 14:07:00,
2013-08-12 10:12:00,63.1,60.3,30.02,North,0,0.0,0.0,90,0.02,,,0.14,WUHU21623XXSP,2013-08-12 14:12:00,
2013-08-12 10:17:00,63.1,60.3,30.02,North,0,0.0,0.0,90,0.02,,,0.14,WUHU21623XXSP,2013-08-12 14:17:00,
2013-08-12 10:22:00,63.1,60.3,30.02,North,0,0.0,0.0,91,0.02,,,0.14,WUHU21623XXSP,2013-08-12 14:22:00,
2013-08-12 10:27:00,63.5,60.9,30.01,North,0,0.0,0.0,91,0.02,,,0.14,WUHU21623XXSP,2013-08-12 14:27:00,
2013-08-12 10:32:00,63.7,61.1,30.01,North,0,0.0,0.0,91,0.00,,,0.14,WUHU21623XXSP,2013-08-12 14:32:00,
2013-08-12 10:37:00,63.7,61.1,30.01,North,0,0.0,0.0,91,0.00,,,0.14,WUHU21623XXSP,2013-08-12 14:37:00,
2013-08-12 10:42:00,64.0,61.4,30.02,North,0,0.0,0.0,91,0.00,,,0.14,WUHU21623XXSP,2013-08-12 14:42:00,
2013-08-12 10:47:00,64.0,61.4,30.02,North,0,0.0,0.0,91,0.00,,,0.14,WUHU21623XXSP,2013-08-12 14:47:00,
2013-08-12 10:52:00,64.0,61.4,30.01,North,0,0.0,0.0,91,0.00,,,0.14,WUHU21623XXSP,2013-08-12 14:52:00,
2013-08-12 10:57:00,64.2,61.9,30.02,North,0,0.0,0.0,92,0.00,,,0.14,WUHU21623XXSP,2013-08-12 14:57:00,
2013-08-12 11:02:00,64.2,61.9,30.02,North,0,0.0,0.0,92,0.00,,,0.14,WUHU21623XXSP,2013-08-12 15:02:00,
2013-08-12 11:07:00,64.6,61.9,30.02,North,0,0.0,0.0,92,0.00,,,0.14,WUHU21623XXSP,2013-08-12 15:07:00,
2013-08-12 11:12:00,64.6,62.3,30.01,North,0,0.0,0.0,92,0.00,,,0.14,WUHU21623XXSP,2013-08-12 15:12:00,
2013-08-12 11:17:00,64.6,62.3,30.01,North,0,0.0,0.0,92,0.00,,,0.14,WUHU21623XXSP,2013-08-12 15:17:00,
2013-08-12 11:22:00,64.6,62.3,30.01,North,0,0.0,0.0,92,0.00,,,0.14,WUHU21623XXSP,2013-08-12 15:22:00,
2013-08-12 11:27:00,64.8,62.4,30.01,North,0,0.0,0.0,92,0.00,,,0.14,WUHU21623XXSP,2013-08-12 15:27:00,
2013-08-12 11:32:00,64.8,62.4,30.01,North,0,0.0,0.0,92,0.00,,,0.14,WUHU21623XXSP,2013-08-12 15:32:00,
2013-08-12 11:37:00,64.9,62.4,30.01,North,0,0.0,0.0,92,0.00,,,0.14,WUHU21623XXSP,2013-08-12 15:37:00,
2013-08-12 11:42:00,65.1,62.7,30.01,North,0,0.0,0.0,92,0.00,,,0.14,WUHU21623XXSP,2013-08-12 15:42:00,
2013-08-12 11:47:00,65.1,62.7,30.01,North,0,0.0,0.0,92,0.00,,,0.14,WUHU21623XXSP,2013-08-12 15:47:00,
2013-08-12 11:52:00,65.1,62.7,30.01,North,0,0.0,0.0,92,0.00,,,0.14,WUHU21623XXSP,2013-08-12 15:52:00,
2013-08-12 11:57:00,65.1,62.7,30.01,North,0,0.0,0.0,92,0.00,,,0.14,WUHU21623XXSP,2013-08-12 15:57:00,
2013-08-12 12:02:00,65.3,62.9,30.01,North,0,0.0,0.0,92,0.00,,,0.14,WUHU21623XXSP,2013-08-12 16:02:00,
2013-08-12 12:07:00,65.3,62.9,30.00,North,0,0.0,0.0,92,0.00,,,0.14,WUHU21623XXSP,2013-08-12 16:07:00,
2013-08-12 12:12:00,65.5,63.1,30.00,North,0,0.0,0.0,93,0.00,,,0.14,WUHU21623XXSP,2013-08-12 16:12:00,
2013-08-12 12:17:00,65.5,63.4,30.00,North,0,0.0,0.0,93,0.00,,,0.14,WUHU21623XXSP,2013-08-12 16:17:00,
2013-08-12 12:22:00,65.5,63.4,30.00,North,0,0.0,0.0,93,0.00,,,0.14,WUHU21623XXSP,2013-08-12 16:22:00,
2013-08-12 12:27:00,65.8,63.7,30.00,North,0,0.0,0.0,93,0.00,,,0.14,WUHU21623XXSP,2013-08-12 16:27:00,
2013-08-12 12:32:00,65.8,63.7,30.00,North,0,0.0,0.0,93,0.00,,,0.14,WUHU21623XXSP,2013-08-12 16:32:00,
2013-08-12 12:37:00,66.0,63.9,30.00,North,0,0.0,0.0,93,0.00,,,0.14,WUHU21623XXSP,2013-08-12 16:37:00,
2013-08-12 12:42:00,66.0,63.9,30.00,North,0,0.0,0.0,93,0.00,,,0.14,WUHU21623XXSP,2013-08-12 16:42:00,
2013-08-12 12:47:00,66.0,63.9,30.00,North,0,0.0,0.0,93,0.00,,,0.14,WUHU21623XXSP,2013-08-12 16:47:00,
2013-08-12 12:52:00,66.0,63.9,29.99,North,0,0.0,0.0,93,0.00,,,0.14,WUHU21623XXSP,2013-08-12 16:52:00,
2013-08-12 12:57:00,66.0,63.9,30.00,North,0,0.0,0.0,93,0.00,,,0.14,WUHU21623XXSP,2013-08-12 16:57:00,
2013-08-12 13:02:00,66.2,64.1,30.00,North,0,0.0,0.0,93,0.00,,,0.14,WUHU21623XXSP,2013-08-12 17:02:00,
2013-08-12 13:07:00,66.4,64.2,29.99,North,0,0.0,0.0,93,0.00,,,0.14,WUHU21623XXSP,2013-08-12 17:07:00,
2013-08-12 13:12:00,66.4,63.9,29.99,North,0,0.0,0.0,92,0.00,,,0.14,WUHU21623XXSP,2013-08-12 17:12:00,
2013-08-12 13:17:00,66.6,63.9,30.00,North,0,0.0,0.0,92,0.00,,,0.14,WUHU21623XXSP,2013-08-12 17:17:00,
2013-08-12 13:22:00,66.6,64.1,30.00,North,0,0.0,0.0,92,0.00,,,0.14,WUHU21623XXSP,2013-08-12 17:22:00,
2013-08-12 13:27:00,66.4,63.9,29.99,North,0,0.0,0.0,92,0.00,,,0.14,WUHU21623XXSP,2013-08-12 17:27:00,
2013-08-12 13:32:00,66.6,64.1,29.99,North,0,0.0,0.0,92,0.00,,,0.14,WUHU21623XXSP,2013-08-12 17:32:00,
2013-08-12 13:37:00,66.7,64.3,29.99,North,0,0.0,0.0,92,0.00,,,0.14,WUHU21623XXSP,2013-08-12 17:37:00,
2013-08-12 13:42:00,66.7,64.3,29.98,North,0,0.0,0.0,92,0.00,,,0.14,WUHU21623XXSP,2013-08-12 17:42:00,
2013-08-12 13:47:00,66.9,64.5,29.98,North,0,0.0,0.0,92,0.00,,,0.14,WUHU21623XXSP,2013-08-12 17:47:00,
2013-08-12 13:52:00,66.9,64.5,29.99,North,0,0.0,0.0,92,0.00,,,0.14,WUHU21623XXSP,2013-08-12 17:52:00,
2013-08-12 13:57:00,66.9,64.5,29.98,North,0,0.0,0.0,92,0.00,,,0.14,WUHU21623XXSP,2013-08-12 17:57:00,
2013-08-12 14:02:00,66.9,64.5,29.98,North,0,0.0,0.0,92,0.00,,,0.14,WUHU21623XXSP,2013-08-12 18:02:00,
2013-08-12 14:07:00,67.1,64.7,29.98,North,0,0.0,0.0,92,0.00,,,0.14,WUHU21623XXSP,2013-08-12 18:07:00,
2013-08-12 14:12:00,66.9,64.5,29.98,North,0,0.0,0.0,92,0.00,,,0.14,WUHU21623XXSP,2013-08-12 18:12:00,
2013-08-12 14:17:00,67.1,64.7,29.98,North,0,0.0,0.0,92,0.02,,,0.16,WUHU21623XXSP,2013-08-12 18:17:00,
2013-08-12 14:22:00,67.3,64.8,29.98,North,0,0.0,0.0,92,0.02,,,0.16,WUHU21623XXSP,2013-08-12 18:22:00,
2013-08-12 14:27:00,67.3,64.8,29.99,North,0,0.0,0.0,92,0.02,,,0.16,WUHU21623XXSP,2013-08-12 18:27:00,
2013-08-12 14:32:00,67.3,64.8,29.98,North,0,0.0,0.0,92,0.02,,,0.16,WUHU21623XXSP,2013-08-12 18:32:00,
2013-08-12 14:37:00,67.6,64.8,29.98,North,0,0.0,0.0,92,0.02,,,0.16,WUHU21623XXSP,2013-08-12 18:37:00,
2013-08-12 14:42:00,67.8,65.7,29.98,North,0,0.0,0.0,93,0.02,,,0.16,WUHU21623XXSP,2013-08-12 18:42:00,
2013-08-12 14:47:00,67.8,65.4,29.98,North,0,0.0,0.0,92,0.02,,,0.16,WUHU21623XXSP,2013-08-12 18:47:00,
2013-08-12 14:52:00,67.8,65.4,29.98,North,0,0.0,0.0,92,0.02,,,0.16,WUHU21623XXSP,2013-08-12 18:52:00,
2013-08-12 14:57:00,67.8,65.4,29.98,North,0,0.0,0.0,92,0.02,,,0.16,WUHU21623XXSP,2013-08-12 18:57:00,
2013-08-12 15:02:00,67.8,65.4,29.98,North,0,0.0,0.0,92,0.02,,,0.16,WUHU21623XXSP,2013-08-12 19:02:00,
2013-08-12 15:07:00,67.8,65.4,29.98,North,0,0.0,0.0,92,0.02,,,0.16,WUHU21623XXSP,2013-08-12 19:07:00,
2013-08-12 15:12:00,67.8,65.4,29.97,North,0,0.0,0.0,92,0.00,,,0.16,WUHU21623XXSP,2013-08-12 19:12:00,
2013-08-12 15:17:00,67.8,65.4,29.97,North,0,0.0,0.0,92,0.00,,,0.16,WUHU21623XXSP,2013-08-12 19:17:00,
2013-08-12 15:22:00,68.0,65.6,29.97,North,0,0.0,0.0,92,0.00,,,0.16,WUHU21623XXSP,2013-08-12 19:22:00,
2013-08-12 15:27:00,68.2,65.6,29.97,North,0,0.0,0.0,92,0.00,,,0.16,WUHU21623XXSP,2013-08-12 19:27:00,
2013-08-12 15:32:00,68.2,65.7,29.97,North,0,0.0,0.0,92,0.00,,,0.16,WUHU21623XXSP,2013-08-12 19:32:00,
2013-08-12 15:37:00,68.2,65.7,29.97,North,0,0.0,0.0,92,0.00,,,0.16,WUHU21623XXSP,2013-08-12 19:37:00,
2013-08-12 15:42:00,68.4,65.9,29.97,North,0,0.0,0.0,92,0.00,,,0.16,WUHU21623XXSP,2013-08-12 19:42:00,
2013-08-12 15:47:00,68.4,65.7,29.97,North,0,0.0,0.0,92,0.00,,,0.16,WUHU21623XXSP,2013-08-12 19:47:00,
2013-08-12 15:52:00,68.2,65.7,29.96,North,0,0.0,0.0,92,0.00,,,0.16,WUHU21623XXSP,2013-08-12 19:52:00,
2013-08-12 15:57:00,68.2,65.7,29.96,North,0,0.0,0.0,92,0.00,,,0.16,WUHU21623XXSP,2013-08-12 19:57:00,
2013-08-12 16:02:00,68.2,65.7,29.96,North,0,0.0,0.0,92,0.00,,,0.16,WUHU21623XXSP,2013-08-12 20:02:00,
2013-08-12 16:07:00,68.0,65.6,29.96,North,0,0.0,0.0,92,0.00,,,0.16,WUHU21623XXSP,2013-08-12 20:07:00,
2013-08-12 16:12:00,67.8,65.4,29.96,North,0,0.0,0.0,92,0.00,,,0.16,WUHU21623XXSP,2013-08-12 20:12:00,
2013-08-12 16:17:00,67.8,65.4,29.95,North,0,0.0,0.0,92,0.03,,,0.19,WUHU21623XXSP,2013-08-12 20:17:00,
2013-08-12 16:22:00,67.8,65.4,29.94,North,0,0.0,0.0,92,0.03,,,0.19,WUHU21623XXSP,2013-08-12 20:22:00,
2013-08-12 16:27:00,68.2,65.6,29.94,North,0,0.0,0.0,92,0.03,,,0.19,WUHU21623XXSP,2013-08-12 20:27:00,
2013-08-12 16:32:00,68.2,65.7,29.94,North,0,0.0,0.0,92,0.03,,,0.19,WUHU21623XXSP,2013-08-12 20:32:00,
2013-08-12 16:42:00,68.4,65.9,29.94,North,0,0.0,0.0,92,0.03,,,0.19,WUHU21623XXSP,2013-08-12 20:42:00,
2013-08-12 16:47:00,68.5,66.1,29.94,North,0,0.0,0.0,92,0.03,,,0.19,WUHU21623XXSP,2013-08-12 20:47:00,
2013-08-12 16:52:00,68.5,66.1,29.94,North,0,0.0,0.0,92,0.03,,,0.19,WUHU21623XXSP,2013-08-12 20:52:00,
2013-08-12 16:57:00,68.5,66.1,29.94,North,0,0.0,0.0,92,0.03,,,0.19,WUHU21623XXSP,2013-08-12 20:57:00,
2013-08-12 17:02:00,68.5,66.1,29.94,North,0,0.0,0.0,92,0.03,,,0.19,WUHU21623XXSP,2013-08-12 21:02:00,
2013-08-12 17:07:00,68.5,66.1,29.94,North,0,0.0,0.0,92,0.03,,,0.19,WUHU21623XXSP,2013-08-12 21:07:00,
2013-08-12 17:17:00,68.4,65.9,29.93,North,0,0.0,0.0,92,0.02,,,0.21,WUHU21623XXSP,2013-08-12 21:17:00,
2013-08-12 17:22:00,68.2,65.7,29.93,North,0,0.0,0.0,92,0.02,,,0.21,WUHU21623XXSP,2013-08-12 21:22:00,
2013-08-12 17:27:00,68.2,65.7,29.93,North,0,0.0,0.0,92,0.04,,,0.23,WUHU21623XXSP,2013-08-12 21:27:00,
2013-08-12 17:32:00,68.2,65.7,29.93,North,0,0.0,0.0,92,0.06,,,0.25,WUHU21623XXSP,2013-08-12 21:32:00,
2013-08-12 17:37:00,68.0,65.9,29.93,North,0,0.0,0.0,93,0.12,,,0.31,WUHU21623XXSP,2013-08-12 21:37:00,
2013-08-12 17:42:00,67.8,65.7,29.93,North,0,0.0,0.0,93,0.14,,,0.33,WUHU21623XXSP,2013-08-12 21:42:00,
2013-08-12 17:47:00,67.8,65.7,29.93,North,0,0.0,0.0,93,0.14,,,0.33,WUHU21623XXSP,2013-08-12 21:47:00,
2013-08-12 17:52:00,67.8,65.7,29.93,North,0,0.0,0.0,93,0.14,,,0.33,WUHU21623XXSP,2013-08-12 21:52:00,
2013-08-12 17:57:00,67.8,65.7,29.92,North,0,0.0,0.0,93,0.14,,,0.33,WUHU21623XXSP,2013-08-12 21:57:00,
2013-08-12 18:02:00,67.8,65.7,29.92,North,0,0.0,0.0,93,0.14,,,0.33,WUHU21623XXSP,2013-08-12 22:02:00,
2013-08-12 18:07:00,67.6,65.7,29.92,North,0,0.0,0.0,93,0.14,,,0.33,WUHU21623XXSP,2013-08-12 22:07:00,
2013-08-12 18:12:00,67.8,65.7,29.92,North,0,0.0,0.0,93,0.12,,,0.33,WUHU21623XXSP,2013-08-12 22:12:00,
2013-08-12 18:17:00,67.8,65.7,29.92,North,0,0.0,0.0,93,0.12,,,0.33,WUHU21623XXSP,2013-08-12 22:17:00,
2013-08-12 18:22:00,67.8,65.7,29.91,North,0,0.0,0.0,93,0.12,,,0.33,WUHU21623XXSP,2013-08-12 22:22:00,
2013-08-12 18:27:00,67.8,65.7,29.92,North,0,0.0,0.0,93,0.08,,,0.33,WUHU21623XXSP,2013-08-12 22:27:00,
2013-08-12 18:32:00,67.8,65.7,29.92,North,0,0.0,0.0,93,0.04,,,0.33,WUHU21623XXSP,2013-08-12 22:32:00,
2013-08-12 18:37:00,67.8,65.7,29.91,North,0,0.0,0.0,93,0.02,,,0.33,WUHU21623XXSP,2013-08-12 22:37:00,
2013-08-12 18:42:00,67.6,65.5,29.92,North,0,0.0,0.0,93,0.04,,,0.37,WUHU21623XXSP,2013-08-12 22:42:00,
2013-08-12 18:47:00,67.6,65.5,29.91,North,0,0.0,0.0,93,0.04,,,0.37,WUHU21623XXSP,2013-08-12 22:47:00,
2013-08-12 18:52:00,67.8,65.7,29.91,North,0,0.0,0.0,93,0.04,,,0.37,WUHU21623XXSP,2013-08-12 22:52:00,
2013-08-12 18:57:00,67.6,65.5,29.90,North,0,0.0,0.0,93,0.06,,,0.39,WUHU21623XXSP,2013-08-12 22:57:00,
2013-08-12 19:02:00,67.6,65.5,29.91,North,0,0.0,0.0,93,0.06,,,0.39,WUHU21623XXSP,2013-08-12 23:02:00,
2013-08-12 19:07:00,67.6,65.5,29.90,North,0,0.0,0.0,93,0.06,,,0.39,WUHU21623XXSP,2013-08-12 23:07:00,
2013-08-12 19:12:00,67.6,65.5,29.89,North,0,0.0,0.0,93,0.08,,,0.41,WUHU21623XXSP,2013-08-12 23:12:00,
2013-08-12 19:17:00,67.6,65.8,29.89,North,0,0.0,0.0,94,0.10,,,0.43,WUHU21623XXSP,2013-08-12 23:17:00,
2013-08-12 19:22:00,67.6,65.8,29.89,North,0,0.0,0.0,94,0.10,,,0.43,WUHU21623XXSP,2013-08-12 23:22:00,
2013-08-12 19:27:00,67.6,65.8,29.89,North,0,0.0,0.0,94,0.12,,,0.45,WUHU21623XXSP,2013-08-12 23:27:00,
2013-08-12 19:32:00,67.6,65.8,29.88,North,0,0.0,0.0,94,0.12,,,0.45,WUHU21623XXSP,2013-08-12 23:32:00,
2013-08-12 19:37:00,67.6,65.8,29.89,North,0,0.0,0.0,94,0.10,,,0.45,WUHU21623XXSP,2013-08-12 23:37:00,
2013-08-12 19:42:00,67.6,65.8,29.88,North,0,0.0,0.0,94,0.08,,,0.45,WUHU21623XXSP,2013-08-12 23:42:00,
2013-08-12 19:47:00,67.6,65.8,29.88,North,0,0.0,0.0,94,0.08,,,0.45,WUHU21623XXSP,2013-08-12 23:47:00,
2013-08-12 19:52:00,67.6,65.8,29.88,North,0,0.0,0.0,94,0.08,,,0.45,WUHU21623XXSP,2013-08-12 23:52:00,
2013-08-12 19:57:00,67.6,65.8,29.88,North,0,0.0,0.0,94,0.06,,,0.45,WUHU21623XXSP,2013-08-12 23:57:00,
2013-08-12 20:02:00,67.6,65.8,29.88,North,0,0.0,0.0,94,0.06,,,0.45,WUHU21623XXSP,2013-08-13 00:02:00,
2013-08-12 20:07:00,67.8,66.0,29.88,North,0,0.0,0.0,94,0.04,,,0.45,WUHU21623XXSP,2013-08-13 00:07:00,
2013-08-12 20:13:00,67.8,66.0,29.88,North,0,0.0,0.0,94,0.02,,,0.45,WUHU21623XXSP,2013-08-13 00:13:00,
2013-08-12 20:23:00,67.8,66.0,29.88,North,0,0.0,0.0,94,0.00,,,0.45,WUHU21623XXSP,2013-08-13 00:23:00,
2013-08-12 20:28:00,67.8,66.0,29.88,North,0,0.0,0.0,94,0.00,,,0.45,WUHU21623XXSP,2013-08-13 00:28:00,
2013-08-12 20:33:00,67.8,66.0,29.88,North,0,0.0,0.0,94,0.00,,,0.45,WUHU21623XXSP,2013-08-13 00:33:00,
2013-08-12 20:38:00,67.8,66.0,29.88,North,0,0.0,0.0,94,0.00,,,0.45,WUHU21623XXSP,2013-08-13 00:38:00,
2013-08-12 20:43:00,67.6,65.8,29.88,North,0,0.0,0.0,94,0.00,,,0.45,WUHU21623XXSP,2013-08-13 00:43:00,
2013-08-12 20:48:00,67.6,65.8,29.87,North,0,0.0,0.0,94,0.00,,,0.45,WUHU21623XXSP,2013-08-13 00:48:00,
2013-08-12 20:53:00,67.6,65.8,29.87,North,0,0.0,0.0,94,0.00,,,0.45,WUHU21623XXSP,2013-08-13 00:53:00,
2013-08-12 20:58:00,67.3,65.4,29.88,North,0,0.0,0.0,94,0.00,,,0.45,WUHU21623XXSP,2013-08-13 00:58:00,
2013-08-12 21:03:00,67.3,65.4,29.87,North,0,0.0,0.0,94,0.00,,,0.45,WUHU21623XXSP,2013-08-13 01:03:00,
2013-08-12 21:08:00,67.3,65.4,29.87,North,0,0.0,0.0,94,0.00,,,0.45,WUHU21623XXSP,2013-08-13 01:08:00,
2013-08-12 21:13:00,67.1,65.3,29.87,North,0,0.0,0.0,94,0.00,,,0.45,WUHU21623XXSP,2013-08-13 01:13:00,
2013-08-12 21:18:00,66.9,65.1,29.88,North,0,0.0,0.0,94,0.00,,,0.45,WUHU21623XXSP,2013-08-13 01:18:00,
2013-08-12 21:23:00,66.9,65.1,29.88,North,0,0.0,0.0,94,0.00,,,0.45,WUHU21623XXSP,2013-08-13 01:23:00,
2013-08-12 21:28:00,66.7,64.9,29.88,North,0,0.0,0.0,94,0.00,,,0.45,WUHU21623XXSP,2013-08-13 01:28:00,
2013-08-12 21:33:00,66.7,64.9,29.87,North,0,0.0,0.0,94,0.00,,,0.45,WUHU21623XXSP,2013-08-13 01:33:00,
2013-08-12 21:43:00,66.4,64.5,29.88,North,0,0.0,0.0,94,0.00,,,0.45,WUHU21623XXSP,2013-08-13 01:43:00,
2013-08-12 21:48:00,66.4,64.5,29.88,North,0,0.0,0.0,94,0.00,,,0.45,WUHU21623XXSP,2013-08-13 01:48:00,
2013-08-12 21:53:00,66.2,64.4,29.88,North,0,0.0,0.0,94,0.00,,,0.45,WUHU21623XXSP,2013-08-13 01:53:00,
2013-08-12 21:58:00,66.0,64.2,29.89,North,0,0.0,0.0,94,0.00,,,0.45,WUHU21623XXSP,2013-08-13 01:58:00,
2013-08-12 22:03:00,66.0,64.2,29.89,North,0,0.0,0.0,94,0.00,,,0.45,WUHU21623XXSP,2013-08-13 02:03:00,
2013-08-12 22:08:00,65.8,64.0,29.89,North,0,0.0,0.0,94,0.00,,,0.45,WUHU21623XXSP,2013-08-13 02:08:00,
2013-08-12 22:13:00,65.7,63.8,29.90,North,0,0.0,0.0,94,0.00,,,0.45,WUHU21623XXSP,2013-08-13 02:13:00,
2013-08-12 22:18:00,65.5,63.7,29.90,North,0,0.0,0.0,94,0.00,,,0.45,WUHU21623XXSP,2013-08-13 02:18:00,
2013-08-12 22:23:00,65.5,63.7,29.89,North,0,0.0,0.0,94,0.00,,,0.45,WUHU21623XXSP,2013-08-13 02:23:00,
2013-08-12 22:28:00,65.3,63.5,29.89,North,0,0.0,0.0,94,0.00,,,0.45,WUHU21623XXSP,2013-08-13 02:28:00,
2013-08-12 22:33:00,65.3,63.5,29.89,North,0,0.0,0.0,94,0.00,,,0.45,WUHU21623XXSP,2013-08-13 02:33:00,
2013-08-12 22:38:00,65.1,63.3,29.88,North,0,0.0,0.0,94,0.00,,,0.45,WUHU21623XXSP,2013-08-13 02:38:00,
2013-08-12 22:43:00,64.9,63.2,29.88,North,0,0.0,0.0,94,0.00,,,0.45,WUHU21623XXSP,2013-08-13 02:43:00,
2013-08-12 22:48:00,64.9,63.2,29.88,North,0,0.0,0.0,94,0.00,,,0.45,WUHU21623XXSP,2013-08-13 02:48:00,
2013-08-12 22:53:00,64.8,63.0,29.88,North,0,0.0,0.0,94,0.00,,,0.45,WUHU21623XXSP,2013-08-13 02:53:00,
2013-08-12 22:58:00,64.6,62.8,29.89,North,0,0.0,0.0,94,0.00,,,0.45,WUHU21623XXSP,2013-08-13 02:58:00,
2013-08-12 23:03:00,64.6,62.8,29.89,North,0,0.0,0.0,94,0.00,,,0.45,WUHU21623XXSP,2013-08-13 03:03:00,
2013-08-12 23:08:00,64.6,62.8,29.88,North,0,0.0,0.0,94,0.00,,,0.45,WUHU21623XXSP,2013-08-13 03:08:00,
2013-08-12 23:13:00,64.6,62.8,29.88,North,0,0.0,0.0,94,0.00,,,0.45,WUHU21623XXSP,2013-08-13 03:13:00,
2013-08-12 23:18:00,64.4,62.7,29.88,North,0,0.0,0.0,94,0.00,,,0.45,WUHU21623XXSP,2013-08-13 03:18:00,
2013-08-12 23:23:00,64.6,62.8,29.88,North,0,0.0,0.0,94,0.00,,,0.45,WUHU21623XXSP,2013-08-13 03:23:00,
2013-08-12 23:28:00,64.6,62.8,29.88,North,0,0.0,0.0,94,0.00,,,0.45,WUHU21623XXSP,2013-08-13 03:28:00,
2013-08-12 23:33:00,64.8,63.0,29.88,North,0,0.0,0.0,94,0.00,,,0.45,WUHU21623XXSP,2013-08-13 03:33:00,
2013-08-12 23:38:00,64.8,63.0,29.88,North,0,0.0,0.0,94,0.00,,,0.45,WUHU21623XXSP,2013-08-13 03:38:00,
2013-08-12 23:43:00,64.9,63.2,29.88,North,0,0.0,0.0,94,0.00,,,0.45,WUHU21623XXSP,2013-08-13 03:43:00,
2013-08-12 23:48:00,64.9,63.2,29.88,North,0,0.0,0.0,94,0.00,,,0.45,WUHU21623XXSP,2013-08-13 03:48:00,
2013-08-12 23:53:00,64.9,63.2,29.88,North,0,0.0,0.0,94,0.00,,,0.45,WUHU21623XXSP,2013-08-13 03:53:00,
2013-08-12 23:58:00,65.1,63.3,29.88,North,0,0.0,0.0,94,0.00,,,0.45,WUHU21623XXSP,2013-08-13 03:58:00,